| time (UTC) | temp F | wind direction | speed MPH | gust MPH | rain 1hr in | rain 24hr in | rain mn in | humidity % | barometer mb |
| 20260502160826 | 58 | 338 | 2.0 | 6.0 | 0.00 | 0.00 | 0.00 | 56 | 1020.0 |
| 20260502160324 | 58 | 337 | 3.0 | 5.0 | 0.00 | 0.00 | 0.00 | 58 | 1019.9 |
| 20260502152259 | 57 | 310 | 1.0 | 2.0 | 0.00 | 0.00 | 0.00 | 60 | 1019.8 |
| 20260502151756 | 57 | 328 | 2.0 | 3.0 | 0.00 | 0.00 | 0.00 | 62 | 1019.5 |
| 20260502151253 | 57 | 333 | 2.0 | 3.0 | 0.00 | 0.00 | 0.00 | 59 | 1019.6 |
| 20260502150751 | 57 | 353 | 2.0 | 3.0 | 0.00 | 0.00 | 0.00 | 61 | 1019.4 |
| 20260502150248 | 56 | 313 | 1.0 | 2.0 | 0.00 | 0.00 | 0.00 | 64 | 1019.6 |
| 20260502130636 | 52 | 315 | 2.0 | 2.0 | 0.00 | 0.00 | 0.00 | 71 | 1018.1 |
| 20260502130134 | 52 | 337 | 2.0 | 3.0 | 0.00 | 0.00 | 0.00 | 70 | 1018.1 |
| 20260502123620 | 52 | 315 | 1.0 | 2.0 | 0.00 | 0.00 | 0.00 | 71 | 1018.0 |
| 20260502123116 | 52 | 315 | 0.0 | 2.0 | 0.00 | 0.00 | 0.00 | 71 | 1017.8 |
| 20260502122612 | 52 | 332 | 2.0 | 6.0 | 0.00 | 0.00 | 0.00 | 68 | 1017.8 |
| 20260502122109 | 52 | 311 | 2.0 | 2.0 | 0.00 | 0.00 | 0.00 | 70 | 1018.0 |
| 20260502121607 | 52 | 314 | 0.0 | 2.0 | 0.00 | 0.00 | 0.00 | 69 | 1017.8 |
| 20260502121105 | 52 | 323 | 1.0 | 2.0 | 0.00 | 0.00 | 0.00 | 70 | 1017.8 |
| 20260502120600 | 52 | 327 | 1.0 | 2.0 | 0.00 | 0.00 | 0.00 | 70 | 1017.7 |
| 20260502115556 | 52 | 333 | 2.0 | 3.0 | 0.00 | 0.00 | 0.00 | 68 | 1017.5 |
| 20260502115051 | 52 | 327 | 1.0 | 2.0 | 0.00 | 0.00 | 0.00 | 67 | 1017.4 |
| 20260502114548 | 52 | 327 | 2.0 | 2.0 | 0.00 | 0.00 | 0.00 | 67 | 1017.4 |
| 20260502114045 | 52 | 332 | 2.0 | 3.0 | 0.00 | 0.00 | 0.00 | 68 | 1017.1 |
| 20260502113542 | 52 | 327 | 1.0 | 2.0 | 0.00 | 0.00 | 0.00 | 67 | 1017.3 |
| 20260502113041 | 52 | 322 | 1.0 | 2.0 | 0.00 | 0.00 | 0.00 | 67 | 1017.2 |
| 20260502112538 | 52 | 325 | 2.0 | 3.0 | 0.00 | 0.00 | 0.00 | 68 | 1017.2 |
| 20260502112036 | 52 | 323 | 1.0 | 2.0 | 0.00 | 0.00 | 0.00 | 68 | 1017.2 |
| 20260502111533 | 52 | 322 | 0.0 | 2.0 | 0.00 | 0.00 | 0.00 | 71 | 1017.6 |
| 20260502111030 | 52 | 322 | 1.0 | 3.0 | 0.00 | 0.00 | 0.00 | 68 | 1017.3 |
| 20260502110527 | 52 | 333 | 1.0 | 2.0 | 0.00 | 0.00 | 0.00 | 67 | 1017.3 |
| 20260502110025 | 52 | 319 | 1.0 | 2.0 | 0.00 | 0.00 | 0.00 | 70 | 1017.3 |
| 20260502105522 | 52 | 324 | 1.0 | 2.0 | 0.00 | 0.00 | 0.00 | 70 | 1017.2 |
| 20260502105020 | 52 | 326 | 2.0 | 2.0 | 0.00 | 0.00 | 0.00 | 70 | 1017.2 |
| 20260502104517 | 52 | 322 | 1.0 | 2.0 | 0.00 | 0.00 | 0.00 | 69 | 1016.9 |
| 20260502104014 | 52 | 325 | 1.0 | 2.0 | 0.00 | 0.00 | 0.00 | 74 | 1017.0 |
| 20260502103512 | 52 | 326 | 2.0 | 2.0 | 0.00 | 0.00 | 0.00 | 72 | 1016.5 |
| 20260502103010 | 52 | 321 | 1.0 | 2.0 | 0.00 | 0.00 | 0.00 | 72 | 1017.3 |
| 20260502102506 | 52 | 319 | 1.0 | 1.0 | 0.00 | 0.00 | 0.00 | 72 | 1017.2 |
| 20260502102003 | 52 | 321 | 0.0 | 1.0 | 0.00 | 0.00 | 0.00 | 74 | 1017.0 |
| 20260502101501 | 52 | 322 | 1.0 | 2.0 | 0.00 | 0.00 | 0.00 | 75 | 1016.9 |
| 20260502100959 | 52 | 322 | 1.0 | 1.0 | 0.00 | 0.00 | 0.00 | 74 | 1017.4 |
| 20260502100457 | 52 | 323 | 2.0 | 2.0 | 0.00 | 0.00 | 0.00 | 74 | 1017.5 |
| 20260502091432 | 53 | 318 | 1.0 | 2.0 | 0.00 | 0.00 | 0.00 | 76 | 1017.1 |
| 20260502090929 | 53 | 318 | 1.0 | 1.0 | 0.00 | 0.00 | 0.00 | 75 | 1016.9 |
| 20260502090426 | 53 | 321 | 1.0 | 2.0 | 0.00 | 0.00 | 0.00 | 74 | 1017.2 |
| 20260502071320 | 55 | 328 | 1.0 | 1.0 | 0.00 | 0.00 | 0.00 | 88 | 1017.1 |
| 20260502070819 | 55 | 330 | 1.0 | 2.0 | 0.00 | 0.00 | 0.00 | 88 | 1017.2 |
| 20260502070316 | 55 | 312 | 0.0 | 1.0 | 0.00 | 0.00 | 0.00 | 90 | 1017.3 |
| 20260502065815 | 55 | 313 | 2.0 | 2.0 | 0.00 | 0.00 | 0.00 | 91 | 1017.5 |
| 20260502065312 | 55 | 307 | 0.0 | 2.0 | 0.00 | 0.00 | 0.00 | 92 | 1017.5 |
| 20260502064810 | 55 | 306 | 0.0 | 1.0 | 0.00 | 0.00 | 0.00 | 92 | 1017.8 |
| 20260502064308 | 55 | 269 | 0.0 | 0.0 | 0.00 | 0.00 | 0.00 | 93 | 1017.6 |
| 20260502063805 | 55 | 237 | 2.0 | 3.0 | 0.00 | 0.00 | 0.00 | 92 | 1017.7 |
| 20260502063303 | 55 | 313 | 0.0 | 2.0 | 0.00 | 0.00 | 0.00 | 91 | 1018.1 |
| 20260502062759 | 55 | 332 | 1.0 | 1.0 | 0.00 | 0.00 | 0.00 | 91 | 1017.8 |
| 20260502062257 | 55 | 328 | 1.0 | 1.0 | 0.00 | 0.00 | 0.00 | 90 | 1017.5 |
| 20260502061756 | 55 | 340 | 0.0 | 1.0 | 0.00 | 0.00 | 0.00 | 90 | 1017.4 |
| 20260502061253 | 56 | 340 | 0.0 | 1.0 | 0.00 | 0.00 | 0.00 | 89 | 1017.7 |
| 20260502060753 | 56 | 312 | 0.0 | 1.0 | 0.00 | 0.00 | 0.00 | 88 | 1017.6 |
| 20260502060249 | 56 | 313 | 0.0 | 1.0 | 0.00 | 0.00 | 0.00 | 88 | 1017.7 |
| 20260502055747 | 56 | 317 | 1.0 | 1.0 | 0.00 | 0.00 | 0.00 | 87 | 1017.7 |
| 20260502055245 | 56 | 317 | 0.0 | 0.0 | 0.00 | 0.00 | 0.00 | 88 | 1017.5 |
| 20260502054744 | 56 | 317 | 0.0 | 1.0 | 0.00 | 0.00 | 0.00 | 87 | 1017.6 |
| 20260502054241 | 56 | 313 | 0.0 | 1.0 | 0.00 | 0.00 | 0.00 | 87 | 1017.6 |
| 20260502053738 | 56 | 315 | 0.0 | 0.0 | 0.00 | 0.00 | 0.00 | 87 | 1017.2 |
| 20260502053235 | 56 | 315 | 0.0 | 1.0 | 0.00 | 0.00 | 0.00 | 85 | 1017.3 |
| 20260502052733 | 56 | 314 | 0.0 | 1.0 | 0.00 | 0.00 | 0.00 | 87 | 1017.4 |
| 20260502052231 | 55 | 313 | 0.0 | 0.0 | 0.00 | 0.00 | 0.00 | 87 | 1017.5 |
| 20260502051729 | 55 | 313 | 0.0 | 0.0 | 0.00 | 0.00 | 0.00 | 88 | 1017.5 |
| 20260502051227 | 55 | 313 | 0.0 | 0.0 | 0.00 | 0.00 | 0.00 | 88 | 1017.4 |
| 20260502050723 | 56 | 313 | 0.0 | 0.0 | 0.00 | 0.00 | 0.00 | 90 | 1017.3 |
| 20260502050219 | 56 | 313 | 1.0 | 1.0 | 0.00 | 0.00 | 0.00 | 89 | 1017.4 |
| 20260502045716 | 56 | 313 | 1.0 | 1.0 | 0.00 | 0.02 | 0.02 | 89 | 1017.3 |
| 20260502045214 | 56 | 313 | 0.0 | 1.0 | 0.00 | 0.02 | 0.02 | 87 | 1017.6 |
| 20260502044710 | 56 | 313 | 1.0 | 1.0 | 0.00 | 0.02 | 0.02 | 87 | 1017.5 |
| 20260502044206 | 56 | 314 | 0.0 | 1.0 | 0.00 | 0.02 | 0.02 | 87 | 1017.5 |
| 20260502043704 | 56 | 314 | 0.0 | 1.0 | 0.00 | 0.02 | 0.02 | 88 | 1017.5 |
| 20260502043202 | 56 | 314 | 0.0 | 0.0 | 0.00 | 0.02 | 0.02 | 89 | 1017.3 |
| 20260502042701 | 56 | 314 | 0.0 | 0.0 | 0.00 | 0.02 | 0.02 | 90 | 1017.0 |
| 20260502042158 | 56 | 314 | 0.0 | 0.0 | 0.00 | 0.02 | 0.02 | 90 | 1017.1 |
| 20260502041655 | 55 | 314 | 0.0 | 0.0 | 0.00 | 0.02 | 0.02 | 91 | 1017.1 |
| 20260502041153 | 55 | 314 | 0.0 | 0.0 | 0.00 | 0.02 | 0.02 | 92 | 1017.2 |
| 20260502040649 | 55 | 314 | 0.0 | 0.0 | 0.00 | 0.02 | 0.02 | 92 | 1017.2 |
| 20260502040147 | 55 | 314 | 0.0 | 0.0 | 0.00 | 0.02 | 0.02 | 94 | 1017.0 |
| 20260502035643 | 55 | 314 | 0.0 | 0.0 | 0.00 | 0.02 | 0.02 | 94 | 1017.0 |
| 20260502035139 | 55 | 314 | 0.0 | 0.0 | 0.00 | 0.02 | 0.02 | 94 | 1016.9 |
| 20260502034637 | 55 | 314 | 0.0 | 0.0 | 0.00 | 0.02 | 0.02 | 94 | 1017.2 |
| 20260502034136 | 55 | 314 | 0.0 | 0.0 | 0.00 | 0.02 | 0.02 | 93 | 1017.1 |
| 20260502033633 | 55 | 314 | 0.0 | 0.0 | 0.00 | 0.02 | 0.02 | 93 | 1017.1 |
| 20260502033131 | 55 | 314 | 0.0 | 0.0 | 0.00 | 0.02 | 0.02 | 93 | 1017.3 |
| 20260502032627 | 55 | 314 | 0.0 | 0.0 | 0.00 | 0.02 | 0.02 | 93 | 1017.3 |
| 20260502032123 | 55 | 314 | 0.0 | 0.0 | 0.00 | 0.02 | 0.02 | 92 | 1017.5 |
| 20260502031621 | 55 | 314 | 0.0 | 0.0 | 0.00 | 0.02 | 0.02 | 91 | 1017.4 |
| 20260502031119 | 54 | 314 | 0.0 | 0.0 | 0.00 | 0.02 | 0.02 | 92 | 1017.5 |
| 20260502030618 | 54 | 314 | 0.0 | 0.0 | 0.00 | 0.02 | 0.02 | 93 | 1017.5 |
| 20260502030115 | 54 | 314 | 0.0 | 0.0 | 0.00 | 0.02 | 0.02 | 94 | 1018.0 |
| 20260502025612 | 54 | 314 | 0.0 | 0.0 | 0.00 | 0.02 | 0.02 | 96 | 1017.8 |
| 20260502025110 | 54 | 314 | 0.0 | 0.0 | 0.00 | 0.02 | 0.02 | 97 | 1017.6 |
| 20260502024608 | 54 | 314 | 0.0 | 0.0 | 0.00 | 0.02 | 0.02 | 97 | 1017.7 |
| 20260502024106 | 54 | 314 | 0.0 | 0.0 | 0.00 | 0.02 | 0.02 | 97 | 1017.7 |
| 20260502023603 | 54 | 314 | 0.0 | 0.0 | 0.00 | 0.02 | 0.02 | 97 | 1017.8 |
| 20260502023100 | 55 | 314 | 0.0 | 0.0 | 0.00 | 0.02 | 0.02 | 98 | 1018.0 |
| 20260502022557 | 55 | 314 | 0.0 | 0.0 | 0.00 | 0.02 | 0.02 | 97 | 1017.8 |
| 20260502022054 | 55 | 314 | 0.0 | 0.0 | 0.00 | 0.02 | 0.02 | 97 | 1018.1 |
| 20260502021552 | 55 | 314 | 0.0 | 0.0 | 0.00 | 0.02 | 0.02 | 96 | 1018.1 |
| 20260502021048 | 55 | 314 | 0.0 | 0.0 | 0.00 | 0.02 | 0.02 | 96 | 1018.2 |
| 20260502020546 | 55 | 314 | 0.0 | 0.0 | 0.00 | 0.02 | 0.02 | 95 | 1018.2 |
| 20260502020043 | 55 | 314 | 0.0 | 0.0 | 0.00 | 0.02 | 0.02 | 95 | 1018.3 |
| 20260502015540 | 55 | 314 | 0.0 | 0.0 | 0.05 | 0.02 | 0.02 | 95 | 1018.2 |
| 20260502015037 | 55 | 314 | 0.0 | 0.0 | 0.05 | 0.02 | 0.02 | 95 | 1018.2 |
| 20260502014534 | 55 | 314 | 0.0 | 0.0 | 0.00 | 0.01 | 0.01 | 95 | 1018.2 |
| 20260502014031 | 55 | 314 | 0.0 | 0.0 | 0.00 | 0.01 | 0.01 | 94 | 1018.0 |
| 20260502013526 | 55 | 314 | 0.0 | 0.0 | 0.00 | 0.01 | 0.01 | 93 | 1018.0 |
| 20260502013023 | 56 | 314 | 0.0 | 0.0 | 0.07 | 0.01 | 0.01 | 92 | 1018.2 |
| 20260502012520 | 56 | 314 | 0.0 | 0.0 | 0.07 | 0.01 | 0.01 | 90 | 1017.8 |
| 20260502012018 | 57 | 314 | 0.0 | 0.0 | 0.00 | 0.00 | 0.00 | 86 | 1018.1 |
| 20260502011514 | 57 | 314 | 0.0 | 0.0 | 0.00 | 0.00 | 0.00 | 83 | 1017.8 |
| 20260502011011 | 57 | 315 | 0.0 | 0.0 | 0.00 | 0.00 | 0.00 | 80 | 1018.0 |
| 20260502010508 | 58 | 315 | 0.0 | 1.0 | 0.00 | 0.00 | 0.00 | 78 | 1017.6 |
| 20260502010004 | 58 | 315 | 0.0 | 0.0 | 0.00 | 0.00 | 0.00 | 77 | 1017.5 |
| 20260502005502 | 58 | 315 | 0.0 | 0.0 | 0.00 | 0.00 | 0.00 | 76 | 1017.5 |
| 20260502005000 | 58 | 315 | 0.0 | 0.0 | 0.00 | 0.00 | 0.00 | 75 | 1017.1 |
| 20260502004455 | 58 | 315 | 0.0 | 0.0 | 0.00 | 0.00 | 0.00 | 76 | 1017.1 |
| 20260502003952 | 58 | 315 | 0.0 | 1.0 | 0.00 | 0.00 | 0.00 | 76 | 1017.1 |
| 20260502003450 | 58 | 315 | 1.0 | 1.0 | 0.00 | 0.00 | 0.00 | 77 | 1017.0 |
| 20260502002946 | 58 | 315 | 0.0 | 0.0 | 0.00 | 0.00 | 0.00 | 77 | 1017.2 |
| 20260502002443 | 58 | 315 | 0.0 | 0.0 | 0.00 | 0.00 | 0.00 | 74 | 1017.3 |
| 20260502001940 | 58 | 315 | 1.0 | 1.0 | 0.00 | 0.00 | 0.00 | 74 | 1017.4 |
| 20260502001438 | 58 | 315 | 0.0 | 1.0 | 0.00 | 0.00 | 0.00 | 73 | 1017.1 |
| 20260502000935 | 58 | 315 | 0.0 | 1.0 | 0.00 | 0.00 | 0.00 | 75 | 1017.1 |
| 20260502000434 | 58 | 316 | 0.0 | 0.0 | 0.00 | 0.00 | 0.00 | 73 | 1017.0 |
| 20260501235930 | 58 | 316 | 0.0 | 0.0 | 0.00 | 0.00 | 0.00 | 73 | 1016.9 |
| 20260501235425 | 59 | 317 | 0.0 | 0.0 | 0.00 | 0.00 | 0.00 | 75 | 1016.9 |
| 20260501234920 | 59 | 317 | 0.0 | 1.0 | 0.00 | 0.00 | 0.00 | 71 | 1017.0 |
| 20260501234418 | 59 | 317 | 0.0 | 0.0 | 0.00 | 0.00 | 0.00 | 71 | 1016.7 |
| 20260501233916 | 59 | 315 | 1.0 | 1.0 | 0.00 | 0.00 | 0.00 | 72 | 1016.7 |
| 20260501233413 | 59 | 315 | 0.0 | 0.0 | 0.00 | 0.00 | 0.00 | 70 | 1016.7 |
| 20260501232909 | 60 | 315 | 0.0 | 1.0 | 0.00 | 0.00 | 0.00 | 69 | 1016.9 |
| 20260501232406 | 60 | 315 | 0.0 | 0.0 | 0.00 | 0.00 | 0.00 | 70 | 1016.7 |
| 20260501231904 | 60 | 315 | 0.0 | 0.0 | 0.00 | 0.00 | 0.00 | 72 | 1016.8 |
| 20260501231402 | 60 | 315 | 0.0 | 1.0 | 0.00 | 0.00 | 0.00 | 69 | 1016.8 |
| 20260501230900 | 60 | 315 | 0.0 | 1.0 | 0.00 | 0.00 | 0.00 | 68 | 1016.8 |
| 20260501230359 | 60 | 316 | 1.0 | 1.0 | 0.00 | 0.00 | 0.00 | 69 | 1016.7 |
| 20260501225855 | 60 | 319 | 0.0 | 0.0 | 0.00 | 0.00 | 0.00 | 69 | 1016.7 |
| 20260501225353 | 60 | 319 | 0.0 | 0.0 | 0.00 | 0.00 | 0.00 | 67 | 1016.6 |
| 20260501224849 | 60 | 319 | 0.0 | 1.0 | 0.00 | 0.00 | 0.00 | 67 | 1016.8 |
| 20260501224347 | 61 | 319 | 0.0 | 0.0 | 0.00 | 0.00 | 0.00 | 68 | 1016.7 |
| 20260501223843 | 61 | 319 | 0.0 | 0.0 | 0.00 | 0.00 | 0.00 | 68 | 1016.7 |
| 20260501223339 | 61 | 319 | 0.0 | 0.0 | 0.00 | 0.00 | 0.00 | 67 | 1016.8 |
| 20260501222834 | 61 | 319 | 1.0 | 1.0 | 0.00 | 0.00 | 0.00 | 67 | 1016.8 |
| 20260501222332 | 61 | 320 | 0.0 | 0.0 | 0.00 | 0.00 | 0.00 | 68 | 1016.9 |
| 20260501221829 | 61 | 320 | 0.0 | 0.0 | 0.00 | 0.00 | 0.00 | 68 | 1017.1 |
| 20260501221326 | 61 | 326 | 0.0 | 0.0 | 0.00 | 0.00 | 0.00 | 70 | 1017.0 |
| 20260501220824 | 61 | 327 | 1.0 | 1.0 | 0.00 | 0.00 | 0.00 | 68 | 1016.9 |
| 20260501220321 | 62 | 328 | 0.0 | 0.0 | 0.00 | 0.00 | 0.00 | 68 | 1017.0 |
| 20260501215818 | 62 | 330 | 0.0 | 0.0 | 0.00 | 0.00 | 0.00 | 67 | 1016.5 |
| 20260501215314 | 62 | 321 | 1.0 | 1.0 | 0.00 | 0.00 | 0.00 | 65 | 1016.8 |
| 20260501214809 | 62 | 312 | 0.0 | 1.0 | 0.00 | 0.00 | 0.00 | 66 | 1016.7 |
| 20260501214305 | 62 | 315 | 0.0 | 1.0 | 0.00 | 0.00 | 0.00 | 66 | 1016.5 |
| 20260501213801 | 62 | 315 | 0.0 | 0.0 | 0.00 | 0.00 | 0.00 | 68 | 1016.2 |
| 20260501213257 | 63 | 302 | 0.0 | 1.0 | 0.00 | 0.00 | 0.00 | 65 | 1016.2 |
| 20260501212753 | 63 | 316 | 0.0 | 1.0 | 0.00 | 0.00 | 0.00 | 64 | 1016.2 |
| 20260501212250 | 63 | 317 | 0.0 | 0.0 | 0.00 | 0.00 | 0.00 | 64 | 1016.1 |
| 20260501211748 | 63 | 311 | 0.0 | 0.0 | 0.00 | 0.00 | 0.00 | 65 | 1016.2 |
| 20260501211244 | 63 | 312 | 0.0 | 2.0 | 0.00 | 0.00 | 0.00 | 65 | 1016.2 |
| 20260501210741 | 63 | 313 | 0.0 | 1.0 | 0.00 | 0.00 | 0.00 | 67 | 1015.9 |
| 20260501210238 | 63 | 314 | 0.0 | 0.0 | 0.00 | 0.00 | 0.00 | 64 | 1016.1 |
| 20260501205734 | 63 | 319 | 1.0 | 1.0 | 0.00 | 0.00 | 0.00 | 64 | 1016.2 |
| 20260501205231 | 62 | 320 | 0.0 | 1.0 | 0.00 | 0.00 | 0.00 | 64 | 1016.5 |
| 20260501204728 | 62 | 321 | 0.0 | 2.0 | 0.00 | 0.00 | 0.00 | 63 | 1016.7 |
| 20260501204225 | 63 | 327 | 1.0 | 1.0 | 0.00 | 0.00 | 0.00 | 64 | 1016.9 |
| 20260501203721 | 63 | 328 | 0.0 | 1.0 | 0.00 | 0.00 | 0.00 | 61 | 1017.1 |
| 20260501203219 | 63 | 327 | 0.0 | 1.0 | 0.00 | 0.00 | 0.00 | 62 | 1017.1 |
| 20260501202716 | 63 | 326 | 0.0 | 1.0 | 0.00 | 0.00 | 0.00 | 61 | 1017.3 |
| 20260501202213 | 63 | 344 | 2.0 | 2.0 | 0.00 | 0.00 | 0.00 | 59 | 1017.2 |
| 20260501201709 | 63 | 316 | 1.0 | 2.0 | 0.00 | 0.00 | 0.00 | 61 | 1017.4 |
| 20260501201206 | 63 | 317 | 1.0 | 3.0 | 0.00 | 0.00 | 0.00 | 61 | 1017.3 |
| 20260501200703 | 63 | 340 | 0.0 | 1.0 | 0.00 | 0.00 | 0.00 | 63 | 1017.5 |
| 20260501200200 | 64 | 337 | 0.0 | 3.0 | 0.00 | 0.00 | 0.00 | 58 | 1017.6 |
| 20260501195657 | 64 | 313 | 1.0 | 1.0 | 0.00 | 0.00 | 0.00 | 59 | 1018.0 |
| 20260501195153 | 63 | 305 | 1.0 | 1.0 | 0.00 | 0.00 | 0.00 | 59 | 1018.2 |
| 20260501194649 | 63 | 356 | 0.0 | 1.0 | 0.00 | 0.00 | 0.00 | 59 | 1018.3 |
| 20260501194144 | 63 | 5 | 1.0 | 2.0 | 0.00 | 0.00 | 0.00 | 58 | 1018.3 |
| 20260501193642 | 62 | 316 | 0.0 | 1.0 | 0.00 | 0.00 | 0.00 | 60 | 1018.4 |
| 20260501193141 | 62 | 311 | 0.0 | 2.0 | 0.00 | 0.00 | 0.00 | 59 | 1018.8 |
| 20260501192637 | 62 | 300 | 1.0 | 3.0 | 0.00 | 0.00 | 0.00 | 62 | 1018.7 |
| 20260501192135 | 62 | 325 | 0.0 | 1.0 | 0.00 | 0.00 | 0.00 | 63 | 1018.7 |
| 20260501191632 | 62 | 305 | 1.0 | 2.0 | 0.00 | 0.00 | 0.00 | 62 | 1018.5 |
| 20260501191129 | 62 | 289 | 1.0 | 3.0 | 0.00 | 0.00 | 0.00 | 61 | 1018.6 |
| 20260501190625 | 62 | 309 | 0.0 | 0.0 | 0.00 | 0.00 | 0.00 | 61 | 1018.7 |
| 20260501190120 | 62 | 309 | 2.0 | 2.0 | 0.00 | 0.00 | 0.00 | 63 | 1018.6 |
| 20260501185617 | 62 | 309 | 0.0 | 1.0 | 0.00 | 0.00 | 0.00 | 64 | 1018.5 |
| 20260501185112 | 62 | 305 | 1.0 | 1.0 | 0.00 | 0.00 | 0.00 | 63 | 1018.7 |
| 20260501184609 | 62 | 303 | 0.0 | 1.0 | 0.00 | 0.00 | 0.00 | 63 | 1018.6 |
| 20260501184104 | 63 | 300 | 1.0 | 2.0 | 0.00 | 0.00 | 0.00 | 61 | 1018.4 |
| 20260501183601 | 62 | 321 | 0.0 | 0.0 | 0.00 | 0.00 | 0.00 | 61 | 1018.3 |
| 20260501183057 | 62 | 287 | 0.0 | 2.0 | 0.00 | 0.00 | 0.00 | 61 | 1018.3 |
| 20260501182554 | 62 | 311 | 0.0 | 1.0 | 0.00 | 0.00 | 0.00 | 65 | 1018.2 |
| 20260501182051 | 62 | 335 | 2.0 | 3.0 | 0.00 | 0.00 | 0.00 | 67 | 1018.2 |
| 20260501181548 | 62 | 309 | 0.0 | 1.0 | 0.00 | 0.00 | 0.00 | 64 | 1018.2 |
| 20260501181045 | 63 | 310 | 1.0 | 2.0 | 0.00 | 0.00 | 0.00 | 65 | 1018.3 |
| 20260501180543 | 62 | 309 | 1.0 | 1.0 | 0.00 | 0.00 | 0.00 | 66 | 1018.2 |
| 20260501180038 | 63 | 309 | 0.0 | 1.0 | 0.00 | 0.00 | 0.00 | 70 | 1018.3 |
| 20260501175535 | 62 | 355 | 0.0 | 3.0 | 0.00 | 0.00 | 0.00 | 69 | 1018.2 |
| 20260501175032 | 62 | 300 | 1.0 | 1.0 | 0.00 | 0.00 | 0.00 | 69 | 1018.5 |
| 20260501174529 | 62 | 312 | 0.0 | 0.0 | 0.00 | 0.00 | 0.00 | 70 | 1018.5 |
| 20260501174027 | 61 | 322 | 2.0 | 2.0 | 0.00 | 0.00 | 0.00 | 73 | 1018.4 |
| 20260501173524 | 61 | 313 | 1.0 | 2.0 | 0.00 | 0.00 | 0.00 | 73 | 1018.9 |
| 20260501173021 | 60 | 314 | 1.0 | 2.0 | 0.00 | 0.00 | 0.00 | 78 | 1019.0 |
| 20260501172516 | 60 | 350 | 1.0 | 3.0 | 0.00 | 0.00 | 0.00 | 76 | 1019.0 |
| 20260501172012 | 60 | 316 | 0.0 | 2.0 | 0.00 | 0.00 | 0.00 | 76 | 1019.0 |
| 20260501171508 | 60 | 323 | 1.0 | 2.0 | 0.00 | 0.00 | 0.00 | 75 | 1019.2 |
| 20260501171005 | 60 | 336 | 1.0 | 1.0 | 0.00 | 0.00 | 0.00 | 77 | 1019.2 |
| 20260501170502 | 60 | 335 | 1.0 | 1.0 | 0.00 | 0.00 | 0.00 | 78 | 1019.2 |
| 20260501165959 | 59 | 313 | 0.0 | 2.0 | 0.00 | 0.00 | 0.00 | 77 | 1019.2 |
| 20260501165457 | 59 | 319 | 0.0 | 2.0 | 0.00 | 0.00 | 0.00 | 74 | 1019.1 |
| 20260501164954 | 59 | 322 | 1.0 | 1.0 | 0.00 | 0.00 | 0.00 | 74 | 1019.3 |
| 20260501164452 | 59 | 305 | 0.0 | 1.0 | 0.00 | 0.00 | 0.00 | 75 | 1019.0 |
| 20260501163948 | 59 | 308 | 1.0 | 2.0 | 0.00 | 0.00 | 0.00 | 74 | 1019.3 |
| 20260501163444 | 60 | 307 | 1.0 | 2.0 | 0.00 | 0.00 | 0.00 | 74 | 1019.4 |
| 20260501162941 | 59 | 306 | 0.0 | 1.0 | 0.00 | 0.00 | 0.00 | 72 | 1019.0 |
| 20260501162438 | 59 | 307 | 0.0 | 0.0 | 0.00 | 0.00 | 0.00 | 70 | 1019.1 |
| 20260501161935 | 59 | 313 | 0.0 | 0.0 | 0.00 | 0.00 | 0.00 | 71 | 1019.3 |
| 20260501161432 | 59 | 316 | 0.0 | 0.0 | 0.00 | 0.00 | 0.00 | 75 | 1019.4 |